Location: Bieujac
(44.5398°N, 0.1549°W)
Time: 03:16:56
(UTC+00:00)

SJ 16-02 - Pass Details

Date: 17 November 2019
Orbit: 607 x 616 km, 75.0° (Epoch: 05 December)

Event Time Altitude Azimuth Distance (km) Brightness Sun altitude
Exits shadow 05:14:56 41° 278° (W) 891 1.6 -18.5°
Maximum altitude 05:15:22 42° 294° (WNW) 872 1.6 -18.4°
Drops below altitude 10° 05:19:33 10° 7° (N) 1,967 3.9 -17.7°
Sets 05:21:53 0° 14° (NNE) 2,875 4.8 -17.3°
